[[{"header":{"parameterUnit":"m.s-1","parameterCategory":1,"la1":30.2991,"la2":30.254,"lo1":-89.0895,"lo2":-89.0444,"dy":0.0017,"dx":0.0017,"nx":28,"ny":28,"refTime":"2025-04-09T03:00:00:Z","depth":0,"parameterNumber":2,"parameterNumberName":"U-component_of_WINDS"},"data":[0,0,0,0,0,0,0,0,0,0,0,0,0,0,0,0,0,0,0,0,0,0,0,0,0,0,0,0,0,0,0,0,0,0,0,0,0,0,0,0,0,0,0,0,0,0,0,0,0,0,0,0,0,0,0,0,0,0,1.823,1.823,0,1.8264,1.8264,1.8264,1.8224,1.8222,1.8221,1.8219,1.8263,1.8265,1.8268,0,0,0,0,0,0,0,0,0,0,0,0,0,1.814,1.8142,1.823,1.823,1.8231,1.8264,1.8264,1.8265,1.8224,1.8222,1.822,1.8218,1.8262,1.8265,1.8268,0,0,0,0,0,0,0,0,0,0,0,0,0,1.8177,1.8142,1.823,1.8214,1.8213,1.8264,1.8264,1.8265,1.8224,1.8222,1.822,1.8218,1.8261,1.8265,1.8268,1.8339,0,0,1.828,1.8282,0,0,0,0,0,0,0,0,1.8175,1.818,1.8216,1.8215,1.8214,1.8237,1.8248,1.829,1.8225,1.822,1.8219,1.8216,1.8257,1.8261,1.8272,1.8341,1.8343,1.8281,1.8283,1.8285,1.8286,0,0,0,0,0,0,0,1.8172,1.8179,1.8243,1.8217,1.8215,1.8209,1.8211,1.8256,1.8251,1.8221,1.8218,1.8222,1.8256,1.8269,1.8273,1.8343,1.8281,1.8284,1.8286,1.8288,1.8476,1.8479,0,0,0,0,0,0,1.817,1.8177,1.8242,1.8244,1.8188,1.8212,1.8215,1.8232,1.8251,1.8251,1.8224,1.822,1.8263,1.8269,1.8274,1.8361,1.8285,1.8288,1.8291,1.8474,1.8477,1.848,0,0,0,0,0,0,1.8169,1.8177,1.8241,1.821,1.8217,1.8216,1.8235,1.8234,1.8247,1.8253,1.8253,1.8237,1.8262,1.8269,1.8323,1.8362,1.829,1.8294,1.8471,1.8475,1.8478,1.8533,0,0,0,0,0,0,1.8166,1.8176,1.82,1.8211,1.8219,1.8286,1.8238,1.8236,1.8253,1.8248,1.8265,1.8266,1.826,1.8318,1.8327,1.8366,1.8297,1.8467,1.8472,1.8477,1.8528,1.8539,1.8548,0,0,0,0,0,1.8163,1.8215,1.8202,1.821,1.8249,1.8288,1.8294,1.8283,1.8256,1.8282,1.8287,1.8266,1.8356,1.8324,1.8334,1.8375,1.8465,1.8471,1.8477,1.8524,1.8537,1.8548,0,0,0,0,0,0,1.8212,1.8216,1.8201,1.8257,1.8273,1.8281,1.8314,1.8297,1.8322,1.8317,1.8306,1.831,1.8369,1.8377,1.8341,1.8446,1.8406,1.8415,1.8439,1.8451,1.8461,1.8459,1.83,0,0,0,0,0,1.8229,1.8257,1.8261,1.8311,1.8319,1.8315,1.8332,1.8323,1.8339,1.8346,1.8354,1.8374,1.8407,1.8429,1.8459,1.8529,1.8535,1.8562,1.8572,1.858,1.8588,1.8631,1.8644,1.85,1.8499,1.8499,0,0,1.8265,1.8271,1.829,1.8321,1.8331,1.8365,1.8321,1.8357,1.8384,1.8353,1.8405,1.8412,1.8433,1.8496,1.8525,1.8505,1.863,1.8588,1.8594,1.8598,1.8638,1.8652,1.8664,1.8504,1.8503,1.8502,0,0,1.8348,1.8354,1.8397,1.8409,1.8425,1.8422,1.8433,1.8445,1.8448,1.8499,1.8478,1.8511,1.8566,1.8584,1.86,1.8693,1.8677,1.8703,1.8756,1.8797,1.8809,1.8819,1.8856,1.8869,1.8711,1.8711,1.8711,0,1.8392,1.8438,1.8423,1.8461,1.8478,1.8449,1.8495,1.8508,1.8535,1.8549,1.8525,1.8597,1.8609,1.8678,1.8701,1.8714,1.873,1.8702,1.8807,1.8817,1.8827,1.8862,1.8876,1.8715,1.8714,1.8714,1.8714,0,1.8493,1.8527,1.856,1.8585,1.8604,1.8647,1.8642,1.8664,1.8654,1.8656,1.8711,1.8725,1.8759,1.8775,1.8765,1.8844,1.8832,1.8808,1.8769,1.8844,1.8878,1.8891,1.872,1.8718,1.8717,1.8716,0,0,1.8609,1.8624,1.8637,1.8649,1.8666,1.8693,1.8737,1.8768,1.879,1.881,1.8849,1.8898,1.8877,1.8896,1.8889,1.8924,1.9003,1.8897,1.8898,1.8919,1.9096,1.9116,1.9131,1.8991,1.8993,1.8995,1.9095,0,1.8695,1.8766,1.8755,1.8826,1.8859,1.8833,1.8872,1.8889,1.8892,1.8924,1.8928,1.8965,1.8932,1.8944,1.8978,1.8986,1.9039,1.8978,1.9032,1.9034,1.903,1.9148,1.9168,1.9262,1.9108,1.911,1.9112,0,1.8804,1.8827,1.8901,1.8915,1.8929,1.8963,1.8993,1.9021,1.9042,1.9042,1.9064,1.9052,1.91,1.9058,1.9127,1.9086,1.9108,1.9116,1.912,1.9127,1.908,1.9162,1.9291,1.9307,1.9131,1.913,1.9128,0,1.8886,1.8934,1.8986,1.8996,1.9013,1.9039,1.9048,1.9065,1.9086,1.9114,1.9128,1.9162,1.9181,1.921,1.9209,1.9177,1.9281,1.9237,1.9287,1.9287,1.9312,1.9311,1.945,1.932,1.932,1.932,1.932,0,1.8985,1.9032,1.9023,1.9055,1.9109,1.9096,1.9151,1.9158,1.9174,1.9211,1.919,1.9226,1.922,1.9257,1.9257,1.9317,1.9325,1.9331,1.9331,1.9334,1.9334,1.935,1.9345,1.9324,1.9323,1.9322,1.9321,0,1.9085,1.908,1.9135,1.9146,1.9151,1.9191,1.9203,1.9235,1.9237,1.9283,1.9294,1.9298,1.9341,1.9342,1.9391,1.9391,1.9466,1.9457,1.9459,1.9458,1.9509,1.9506,1.9666,1.9689,1.9541,1.9543,1.9544,0,1.915,1.9186,1.9201,1.9222,1.9233,1.9267,1.9288,1.9279,1.9302,1.933,1.9361,1.9401,1.9433,1.9503,1.9514,1.9553,1.9547,1.96,1.9553,1.9557,1.9553,1.9552,1.9558,1.9611,1.9612,1.9613,1.9615,0,1.9268,1.9264,1.9293,1.9322,1.9347,1.9371,1.9392,1.9412,1.9406,1.9434,1.9476,1.9501,1.9551,1.9594,1.9632,1.9646,1.9632,1.9629,1.9643,1.9649,1.965,1.9655,1.9488,1.9626,1.9625,1.9624,1.9623,1.9623,1.9355,1.9387,1.9403,1.9438,1.9452,1.9474,1.9506,1.9511,1.9545,1.9583,1.9576,1.9625,1.9649,1.9699,1.9716,1.9757,1.9739,1.9759,1.9764,1.977,1.9778,1.9641,1.9764,1.9763,1.9763,1.9763,1.9762,0,1.9475,1.9484,1.9515,1.9546,1.9574,1.9554,1.9578,1.9604,1.9646,1.9667,1.9699,1.975,1.9792,1.9806,1.9847,1.9878,1.9873,1.989,1.9889,1.9894,1.9789,1.9774,1.9893,1.9893,1.9893,1.9893,1.9893,1.9893,1.9541,1.9595,1.9593,1.9657,1.9666,1.9711,1.9727,1.9749,1.9766,1.9823,1.9856,1.9864,1.9884,1.9928,1.9967,1.997,1.9989,2.0009,2.0011,1.9914,1.99,1.9888,1.9874,2.0012,2.0012,2.0112,2.0113,2.0114]},{"header":{"parameterUnit":"m.s-1","parameterCategory":1,"la1":30.2991,"la2":30.254,"lo1":-89.0895,"lo2":-89.0444,"dy":0.0017,"dx":0.0017,"nx":28,"ny":28,"refTime":"2025-04-09T03:00:00:Z","depth":0,"parameterNumber":3,"parameterNumberName":"V-component_of_WINDS"},"data":[0,0,0,0,0,0,0,0,0,0,0,0,0,0,0,0,0,0,0,0,0,0,0,0,0,0,0,0,0,0,0,0,0,0,0,0,0,0,0,0,0,0,0,0,0,0,0,0,0,0,0,0,0,0,0,0,0,0,-1.4745,-1.4742,0,-1.4491,-1.4488,-1.4485,-1.4354,-1.4354,-1.4354,-1.4354,-1.4083,-1.4076,-1.4069,0,0,0,0,0,0,0,0,0,0,0,0,0,-1.5102,-1.5096,-1.4745,-1.4742,-1.4739,-1.4491,-1.4488,-1.4484,-1.4354,-1.4354,-1.4354,-1.4354,-1.4085,-1.4077,-1.4068,0,0,0,0,0,0,0,0,0,0,0,0,0,-1.4907,-1.5094,-1.4746,-1.4644,-1.4633,-1.4492,-1.4488,-1.4483,-1.4354,-1.4354,-1.4354,-1.4354,-1.4088,-1.4077,-1.4067,-1.4005,0,0,-1.4034,-1.403,0,0,0,0,0,0,0,0,-1.4919,-1.4894,-1.4662,-1.4651,-1.4638,-1.4454,-1.4514,-1.4322,-1.4354,-1.4459,-1.4354,-1.4353,-1.4206,-1.4185,-1.4138,-1.3992,-1.398,-1.4033,-1.4027,-1.4022,-1.4019,0,0,0,0,0,0,0,-1.4932,-1.4904,-1.4644,-1.4659,-1.4644,-1.4606,-1.4578,-1.4477,-1.4336,-1.445,-1.444,-1.4412,-1.4199,-1.4148,-1.413,-1.3976,-1.4034,-1.4024,-1.4018,-1.4013,-1.3758,-1.3758,0,0,0,0,0,0,-1.4964,-1.4917,-1.4652,-1.4636,-1.4781,-1.46,-1.4569,-1.4513,-1.4337,-1.431,-1.4413,-1.4407,-1.4167,-1.4143,-1.412,-1.4031,-1.4022,-1.4012,-1.4006,-1.3758,-1.3758,-1.3757,0,0,0,0,0,0,-1.4972,-1.4942,-1.4662,-1.4774,-1.4735,-1.4594,-1.4532,-1.4508,-1.4458,-1.4309,-1.4282,-1.4388,-1.4165,-1.4135,-1.4033,-1.402,-1.4008,-1.3998,-1.3759,-1.3758,-1.3758,-1.3856,0,0,0,0,0,0,-1.4983,-1.4946,-1.4925,-1.4774,-1.473,-1.4585,-1.4532,-1.4503,-1.4441,-1.4431,-1.4279,-1.4253,-1.4163,-1.405,-1.4023,-1.4005,-1.399,-1.3759,-1.3759,-1.3758,-1.3853,-1.3859,-1.3863,0,0,0,0,0,-1.4996,-1.4961,-1.4924,-1.4893,-1.4702,-1.4585,-1.4559,-1.4459,-1.4441,-1.4415,-1.4318,-1.4258,-1.4026,-1.4041,-1.4009,-1.3988,-1.376,-1.3759,-1.3758,-1.3851,-1.3857,-1.3863,0,0,0,0,0,0,-1.5111,-1.494,-1.4897,-1.4814,-1.4715,-1.4563,-1.4529,-1.447,-1.4372,-1.4367,-1.4243,-1.421,-1.4118,-1.4042,-1.4062,-1.3914,-1.3886,-1.3879,-1.3968,-1.3973,-1.3978,-1.3997,-1.3981,0,0,0,0,0,-1.5128,-1.5051,-1.4904,-1.4844,-1.4797,-1.4672,-1.4617,-1.4548,-1.4439,-1.4396,-1.4292,-1.4186,-1.4087,-1.4026,-1.3928,-1.3841,-1.3802,-1.381,-1.3815,-1.382,-1.3815,-1.3756,-1.3756,-1.3755,-1.3755,-1.3755,0,0,-1.5159,-1.5056,-1.5015,-1.4864,-1.478,-1.4698,-1.4637,-1.4555,-1.4491,-1.4382,-1.428,-1.4199,-1.4071,-1.3975,-1.3927,-1.3909,-1.3806,-1.3819,-1.3824,-1.3816,-1.3755,-1.3756,-1.3756,-1.3754,-1.3754,-1.3754,0,0,-1.5175,-1.5092,-1.503,-1.4946,-1.482,-1.4735,-1.4721,-1.4576,-1.4519,-1.4415,-1.4329,-1.4249,-1.4085,-1.3996,-1.3929,-1.3904,-1.3842,-1.3875,-1.3902,-1.3846,-1.3846,-1.3845,-1.3832,-1.3829,-1.3871,-1.3871,-1.3871,0,-1.523,-1.5108,-1.5005,-1.4926,-1.486,-1.4759,-1.4692,-1.4614,-1.4461,-1.4414,-1.4397,-1.4185,-1.4092,-1.397,-1.3964,-1.3915,-1.3889,-1.3892,-1.3855,-1.3854,-1.3851,-1.3837,-1.3832,-1.3875,-1.3875,-1.3874,-1.3874,0,-1.5178,-1.5095,-1.5059,-1.4916,-1.4845,-1.4773,-1.4653,-1.4592,-1.4528,-1.4444,-1.4334,-1.4219,-1.4093,-1.4059,-1.3996,-1.3926,-1.3918,-1.388,-1.3849,-1.3858,-1.3842,-1.3836,-1.3882,-1.388,-1.3879,-1.3878,0,0,-1.5263,-1.506,-1.5049,-1.498,-1.483,-1.476,-1.468,-1.4559,-1.4507,-1.4403,-1.4328,-1.4189,-1.4151,-1.4075,-1.3999,-1.3951,-1.3932,-1.3916,-1.3911,-1.392,-1.3841,-1.387,-1.3865,-1.389,-1.3889,-1.3888,-1.385,0,-1.5255,-1.5112,-1.5014,-1.4906,-1.4823,-1.4723,-1.4651,-1.4548,-1.4466,-1.4379,-1.4286,-1.4188,-1.4148,-1.41,-1.4048,-1.3946,-1.3914,-1.3947,-1.3814,-1.3811,-1.3848,-1.3858,-1.3889,-1.386,-1.3844,-1.3843,-1.3842,0,-1.5228,-1.5128,-1.5013,-1.4867,-1.4828,-1.4767,-1.4645,-1.4566,-1.4443,-1.4386,-1.4299,-1.4221,-1.4125,-1.4103,-1.3965,-1.399,-1.3928,-1.3869,-1.3865,-1.3848,-1.3826,-1.3837,-1.3848,-1.3843,-1.3832,-1.3833,-1.3834,0,-1.5296,-1.5133,-1.5041,-1.4985,-1.4814,-1.4771,-1.4697,-1.4575,-1.4507,-1.4398,-1.4351,-1.4233,-1.4167,-1.4074,-1.3963,-1.3958,-1.3834,-1.3804,-1.3779,-1.3781,-1.3757,-1.3759,-1.3756,-1.3722,-1.3722,-1.3722,-1.3722,0,-1.5297,-1.5229,-1.5069,-1.5013,-1.4931,-1.4816,-1.4736,-1.4653,-1.4544,-1.4464,-1.4369,-1.4296,-1.4156,-1.4063,-1.3975,-1.387,-1.3842,-1.3789,-1.3766,-1.3796,-1.3802,-1.3753,-1.3751,-1.3721,-1.3721,-1.3721,-1.3722,0,-1.536,-1.5251,-1.5143,-1.4989,-1.4948,-1.4894,-1.4758,-1.4696,-1.4607,-1.4507,-1.4476,-1.4335,-1.422,-1.4101,-1.3945,-1.3885,-1.3783,-1.3753,-1.3825,-1.3812,-1.3792,-1.3794,-1.3754,-1.3741,-1.3721,-1.3721,-1.3721,0,-1.5367,-1.5313,-1.5152,-1.5093,-1.5022,-1.4929,-1.4858,-1.474,-1.4669,-1.4523,-1.4476,-1.4355,-1.4252,-1.4072,-1.3951,-1.383,-1.3793,-1.3788,-1.3774,-1.3804,-1.3788,-1.3792,-1.3783,-1.3792,-1.3793,-1.3794,-1.3794,0,-1.539,-1.5337,-1.5242,-1.5125,-1.5044,-1.4946,-1.4844,-1.48,-1.466,-1.4584,-1.4467,-1.4387,-1.4227,-1.4105,-1.3968,-1.3884,-1.3813,-1.38,-1.3786,-1.3816,-1.3859,-1.3831,-1.3835,-1.3801,-1.38,-1.38,-1.3799,-1.3799,-1.5422,-1.5367,-1.5244,-1.5138,-1.5049,-1.4954,-1.4887,-1.4788,-1.469,-1.4553,-1.4487,-1.4368,-1.4239,-1.4048,-1.3965,-1.3866,-1.3846,-1.3829,-1.3823,-1.382,-1.3825,-1.3877,-1.3841,-1.384,-1.384,-1.384,-1.384,0,-1.5436,-1.5351,-1.5256,-1.5116,-1.5031,-1.4975,-1.4857,-1.4788,-1.4686,-1.4574,-1.4473,-1.4335,-1.4214,-1.4084,-1.3954,-1.3899,-1.3863,-1.3868,-1.387,-1.385,-1.3853,-1.3876,-1.39,-1.39,-1.39,-1.39,-1.39,-1.39,-1.5434,-1.5336,-1.5267,-1.5121,-1.5034,-1.492,-1.4856,-1.4765,-1.4675,-1.4525,-1.4426,-1.4342,-1.4219,-1.4079,-1.3964,-1.3927,-1.3882,-1.3897,-1.3851,-1.3856,-1.3851,-1.3847,-1.3867,-1.3889,-1.3889,-1.3856,-1.3855,-1.3855]}]]